time_stamp(utc),avg(mph),gust(mph),direction(deg),12m_air_temp(f),sonic_u(cm/s),sonic_v(cm/s),sonic_w(cm/s),pressure,2m_air_temp(f),pyranometer(W/m^2)
"2018-01-16 00:02:42+00",10.7,11.7,,31.9,409,228,22,1032.46,31.4,0
"2018-01-16 00:07:42+00",10.2,11.2,,31.8,354,267,20,1032.36,31.3,0
"2018-01-16 00:12:42+00",11.5,12.5,,31.7,411,289,20,1032.35,31.2,0
"2018-01-16 00:17:42+00",11.6,13.6,,31.8,447,250,25,1032.12,31.2,0
"2018-01-16 00:22:42+00",12.9,13.9,,31.9,507,260,19,1031.91,31.2,0
"2018-01-16 00:27:42+00",13.2,15.2,,32.1,517,277,38,1031.92,31.3,0
"2018-01-16 00:32:42+00",13.5,14.5,,32.2,519,294,24,1032.04,31.4,0
"2018-01-16 00:37:42+00",14.4,15.4,,32.2,558,307,29,1032.07,31.6,0
"2018-01-16 00:42:42+00",12.5,14.5,,32.2,483,267,23,1032.15,31.6,0
"2018-01-16 00:47:42+00",12.3,14.3,,32.2,480,259,27,1032.17,31.6,0
"2018-01-16 00:52:42+00",14.6,16.6,,32.2,574,293,11,1032.1,31.6,0
"2018-01-16 00:57:42+00",13.4,15.4,,32.3,538,255,28,1032.18,31.6,0
"2018-01-16 01:02:42+00",10.5,13.5,,32.4,390,241,23,1032.44,31.7,0
"2018-01-16 01:07:42+00",9.3,10.3,,32.4,269,271,12,1032.55,31.9,0
"2018-01-16 01:12:42+00",7.2,8.2,,32.2,142,259,0,1032.56,31.7,0
"2018-01-16 01:17:42+00",8.0,9.0,,31.8,195,266,4,1032.42,31.4,0
"2018-01-16 01:22:42+00",9.2,10.2,,31.7,282,257,18,1032.24,31.1,0
"2018-01-16 01:27:42+00",9.4,10.4,,31.6,307,253,15,1032.04,31,0
"2018-01-16 01:32:42+00",9.8,10.8,,31.6,374,222,23,1031.71,30.9,0
"2018-01-16 01:37:42+00",11.3,12.3,,31.7,446,217,13,1031.55,30.7,0
"2018-01-16 01:42:42+00",12.2,13.2,,31.9,488,230,21,1031.31,30.6,0
"2018-01-16 01:47:42+00",11.8,13.8,,31.9,474,220,29,1031.27,30.5,0
"2018-01-16 01:52:42+00",12.3,14.3,,32,495,232,24,1031.39,30.5,0
"2018-01-16 01:57:42+00",13.2,14.2,,32.1,551,221,21,1031.32,30.5,0
"2018-01-16 02:02:42+00",13.7,15.7,,32.2,593,181,29,1031.31,30.7,0
"2018-01-16 02:07:42+00",12.5,14.5,,32.3,543,171,27,1031.48,30.8,0
"2018-01-16 02:12:42+00",11.3,14.3,,32.2,477,184,14,1031.69,30.7,0
"2018-01-16 02:17:42+00",10.1,11.1,,32.3,431,156,22,1031.86,30.7,0
"2018-01-16 02:22:42+00",9.8,10.8,,32.3,389,185,20,1032.48,30.8,0
"2018-01-16 02:27:42+00",10.7,12.7,,32.4,440,186,24,1032.31,31,0
"2018-01-16 02:32:42+00",10.9,11.9,,32.5,448,180,15,1032.56,31.1,0
"2018-01-16 02:37:42+00",9.3,10.3,,32.4,395,149,15,1032.42,31.1,0
"2018-01-16 02:42:42+00",10.3,11.3,,32.2,439,145,23,1032.22,30.9,0
"2018-01-16 02:47:42+00",11.1,12.1,,32.1,479,116,28,1032.09,30.7,0
"2018-01-16 02:52:42+00",11.0,13.0,,32.1,479,98,33,1031.82,30.4,0
"2018-01-16 02:57:42+00",12.1,13.1,,32.1,526,130,29,1031.62,30.4,0
"2018-01-16 03:02:42+00",14.0,15.0,,32.4,616,122,27,1031.5,30.4,0
"2018-01-16 03:07:42+00",14.4,15.4,,32.4,637,106,41,1031.43,30.6,0
"2018-01-16 03:12:42+00",11.7,13.7,,32.5,504,133,24,1031.59,30.8,0
"2018-01-16 03:17:42+00",14.4,15.4,,32.6,630,120,39,1031.5,31,0
"2018-01-16 03:22:42+00",12.8,14.8,,32.4,554,161,34,1031.52,30.9,0
"2018-01-16 03:27:42+00",14.0,16.0,,32.5,608,152,39,1031.46,30.9,0
"2018-01-16 03:32:42+00",11.4,13.4,,32.3,487,171,24,1031.42,30.8,0
"2018-01-16 03:37:42+00",13.3,16.3,,32.2,561,219,21,1031.38,30.7,0
"2018-01-16 03:42:42+00",13.8,15.8,,32.2,580,227,24,1031.36,30.6,0
"2018-01-16 03:47:42+00",13.7,16.7,,32.3,589,192,31,1031.45,30.7,0
"2018-01-16 03:52:42+00",15.0,17.0,,32.3,648,184,34,1031.14,30.8,0
"2018-01-16 03:57:42+00",11.3,13.3,,32,489,147,31,1031.34,30.6,0
"2018-01-16 04:02:42+00",11.7,13.7,,32.2,500,173,30,1031.36,30.6,0
"2018-01-16 04:07:42+00",10.6,11.6,,32.1,455,112,23,1031.49,30.5,0
"2018-01-16 04:12:42+00",10.7,11.7,,32.1,461,163,23,1031.46,30.4,0
"2018-01-16 04:17:42+00",10.3,11.3,,32,446,147,20,1031.46,30.3,0
"2018-01-16 04:22:42+00",9.9,11.9,,32.1,424,115,27,1031.44,30.3,0
"2018-01-16 04:27:42+00",9.3,10.3,,32.1,401,91,25,1031.41,30.2,0
"2018-01-16 04:32:42+00",8.9,9.9,,32.1,379,119,21,1031.17,30,0
"2018-01-16 04:37:42+00",8.7,10.7,,32,371,104,23,1031.13,29.8,0
"2018-01-16 04:42:42+00",7.8,8.8,,31.9,336,99,20,1031.26,29.6,0
"2018-01-16 04:47:42+00",9.1,10.1,,32,389,88,26,1031,29.4,0
"2018-01-16 04:52:42+00",8.0,9.0,,32,345,61,23,1031.08,29.5,0
"2018-01-16 04:57:42+00",6.0,7.0,,32,249,79,10,1031.27,29.5,0
"2018-01-16 05:02:42+00",5.7,6.7,,32,236,85,13,1031.26,29.5,0
"2018-01-16 05:07:42+00",5.1,6.1,,32.2,208,66,17,1031.34,29.6,0
"2018-01-16 05:12:42+00",3.8,3.8,,32.1,142,64,21,1031.45,29.6,0
"2018-01-16 05:17:42+00",2.5,2.5,,31.5,-21,88,-3,1031.58,29.3,0
"2018-01-16 05:22:42+00",3.6,4.6,,30.6,-94,110,-4,1031.58,29.1,0
"2018-01-16 05:27:42+00",3.8,3.8,,30.2,-106,112,12,1031.52,28.9,0
"2018-01-16 05:32:42+00",5.1,6.1,,29.4,-107,185,11,1031.62,28.7,0
"2018-01-16 05:37:42+00",5.2,5.2,,29.4,-94,193,3,1031.54,28.5,0
"2018-01-16 05:42:42+00",5.0,5.0,,29.1,-113,173,9,1031.53,28.4,0
"2018-01-16 05:47:42+00",4.7,4.7,,29.3,-144,142,9,1031.49,28.3,0
"2018-01-16 05:52:42+00",4.1,4.1,,28.8,-127,109,0,1031.48,28.2,0
"2018-01-16 05:57:42+00",4.7,4.7,,28.5,-124,149,8,1031.39,28.1,0
"2018-01-16 06:02:42+00",4.7,4.7,,28.3,-83,176,5,1031.32,28,0
"2018-01-16 06:07:42+00",5.2,5.2,,27.7,-152,159,13,1031.37,27.6,0
"2018-01-16 06:12:42+00",5.4,5.4,,27.5,-148,171,11,1031.45,27.4,0
"2018-01-16 06:17:42+00",5.6,6.6,,27.6,-156,184,10,1031.31,27.2,0
"2018-01-16 06:22:42+00",5.3,6.3,,27.4,-135,179,7,1031.25,27.1,0
"2018-01-16 06:27:42+00",4.9,5.9,,27.2,-90,180,12,1031,26.9,0
"2018-01-16 06:32:42+00",4.9,4.9,,27,-90,181,17,1031.15,26.7,0
"2018-01-16 06:37:42+00",4.3,4.3,,27,-82,158,2,1031.17,26.5,0
"2018-01-16 06:42:42+00",5.0,5.0,,26.9,-104,172,7,1031.19,26.4,0
"2018-01-16 06:47:42+00",4.6,5.6,,26.8,-93,162,6,1031.03,26.3,0
"2018-01-16 06:52:42+00",4.8,4.8,,26.8,-43,193,5,1030.91,26.1,0
"2018-01-16 06:57:42+00",5.9,6.9,,26.8,-52,244,1,1030.93,25.9,0
"2018-01-16 07:02:42+00",6.9,7.9,,26.6,-76,282,8,1031.1,25.7,0
"2018-01-16 07:07:42+00",8.5,9.5,,26.3,-34,361,9,1031.3,25.4,0
"2018-01-16 07:12:42+00",9.8,9.8,,26.8,48,414,6,1031.28,25.1,0
"2018-01-16 07:17:42+00",8.8,9.8,,27.6,54,367,7,1031.44,25,0
"2018-01-16 07:22:42+00",5.3,7.3,,27,-59,212,17,1031.67,25,0
"2018-01-16 07:27:42+00",6.8,7.8,,26.2,-158,245,28,1031.73,24.9,0
"2018-01-16 07:32:42+00",5.9,6.9,,26.5,-116,222,18,1031.87,25,0
"2018-01-16 07:37:42+00",4.7,4.7,,26.5,-164,118,8,1031.75,25.2,0
"2018-01-16 07:42:42+00",4.4,4.4,,26.7,-158,95,7,1031.75,25.6,0
"2018-01-16 07:47:42+00",5.2,5.2,,27,-159,154,16,1031.7,25.8,0
"2018-01-16 07:52:42+00",4.0,4.0,,27.2,-122,113,13,1031.6,26.1,0
"2018-01-16 07:57:42+00",4.8,5.8,,27.2,-157,129,9,1031.56,26.2,0
"2018-01-16 08:02:42+00",5.2,5.2,,27.3,-152,160,13,1031.68,26.3,0
"2018-01-16 08:07:42+00",4.6,5.6,,27.2,-88,170,12,1031.5,26.3,0
"2018-01-16 08:12:42+00",4.8,4.8,,27.1,-75,187,11,1031.57,26.3,0
"2018-01-16 08:17:42+00",4.2,5.2,,27.1,-83,151,11,1031.48,26.2,0
"2018-01-16 08:22:42+00",4.3,4.3,,26.9,-85,156,12,1031.36,26.1,0
"2018-01-16 08:27:42+00",5.5,5.5,,26.5,-91,214,14,1031.32,25.9,0
"2018-01-16 08:32:42+00",6.2,6.2,,26.3,-137,227,20,1031.41,25.7,0
"2018-01-16 08:37:42+00",6.3,6.3,,26.1,-172,205,16,1031.57,25.7,0
"2018-01-16 08:42:42+00",5.4,6.4,,25.8,-135,182,15,1031.67,25.7,0
"2018-01-16 08:47:42+00",6.2,7.2,,25.8,-189,194,14,1031.86,25.7,0
"2018-01-16 08:52:42+00",7.4,8.4,,26,-195,256,23,1031.94,25.8,0
"2018-01-16 08:57:42+00",8.6,9.6,,26,-206,309,15,1031.97,25.8,0
"2018-01-16 09:02:42+00",8.0,9.0,,26,-193,290,18,1032.06,25.9,0
"2018-01-16 09:07:42+00",7.4,8.4,,26,-93,303,22,1032.05,25.9,0
"2018-01-16 09:12:42+00",6.6,8.6,,26.2,0,283,10,1031.8,25.9,0
"2018-01-16 09:17:42+00",8.9,9.9,,26.4,54,372,5,1031.67,26.1,0
"2018-01-16 09:22:42+00",8.4,9.4,,26.4,5,358,12,1031.74,26.1,0
"2018-01-16 09:27:42+00",7.9,8.9,,26.5,9,336,10,1031.78,26.2,0
"2018-01-16 09:32:42+00",8.0,9.0,,26.5,58,332,6,1031.6,26.2,0
"2018-01-16 09:37:42+00",7.2,9.2,,26.6,86,287,7,1031.59,26.3,0
"2018-01-16 09:42:42+00",8.6,10.6,,26.7,96,337,2,1031.54,26.4,0
"2018-01-16 09:47:42+00",8.4,9.4,,26.8,130,323,7,1031.39,26.5,0
"2018-01-16 09:52:42+00",9.2,10.2,,27,129,357,-6,1031.44,26.6,0
"2018-01-16 09:57:42+00",8.3,9.3,,27.1,125,318,0,1031.44,26.7,0
"2018-01-16 10:02:42+00",8.6,10.6,,27.2,127,329,-9,1031.65,26.8,0
"2018-01-16 10:07:42+00",8.1,9.1,,27.2,164,301,3,1031.61,26.8,0
"2018-01-16 10:12:42+00",8.5,9.5,,27.2,185,312,7,1031.53,26.8,0
"2018-01-16 10:17:42+00",8.3,10.3,,27.3,173,300,6,1031.61,26.8,0
"2018-01-16 10:22:42+00",8.7,9.7,,27.4,169,324,1,1031.61,26.9,0
"2018-01-16 10:27:42+00",7.5,8.5,,27.5,131,280,1,1031.68,27,0
"2018-01-16 10:32:42+00",8.2,9.2,,27.6,190,285,-1,1031.73,27,0
"2018-01-16 10:37:42+00",7.8,9.8,,27.9,144,293,0,1031.74,27.2,0
"2018-01-16 10:42:42+00",8.6,9.6,,27.9,145,333,-1,1031.82,27.3,0
"2018-01-16 10:47:42+00",8.4,9.4,,27.8,148,323,3,1032.05,27.3,0
"2018-01-16 10:52:42+00",7.7,8.7,,27.9,106,301,-3,1032.1,27.4,0
"2018-01-16 10:57:42+00",7.7,9.7,,28.1,93,309,7,1032.02,27.5,0
"2018-01-16 11:02:42+00",8.1,9.1,,28.1,104,317,5,1031.93,27.6,0
"2018-01-16 11:07:42+00",7.6,9.6,,28.3,109,294,0,1031.98,27.7,0
"2018-01-16 11:12:42+00",6.9,8.9,,28.4,111,260,-4,1032.29,27.9,0
"2018-01-16 11:17:42+00",8.1,9.1,,28.5,167,296,7,1032.27,28,0
"2018-01-16 11:22:42+00",9.2,10.2,,28.7,238,291,12,1032.24,28.1,0
"2018-01-16 11:27:42+00",8.1,9.1,,28.7,208,261,7,1032.17,28.2,0
"2018-01-16 11:32:42+00",5.9,6.9,,28.5,163,170,6,1032.27,28,0
"2018-01-16 11:37:42+00",7.6,8.6,,28.6,261,192,13,1032.09,28.1,0
"2018-01-16 11:42:42+00",7.8,8.8,,28.6,296,163,22,1031.87,28.1,0
"2018-01-16 11:47:42+00",7.8,9.8,,28.5,304,158,20,1031.93,28.1,0
"2018-01-16 11:52:42+00",9.2,10.2,,28.8,348,198,21,1032.02,28.3,0
"2018-01-16 11:57:42+00",8.8,9.8,,29,333,191,20,1031.96,28.4,0
"2018-01-16 12:02:42+00",9.5,10.5,,29.2,365,195,22,1031.87,28.6,0
"2018-01-16 12:07:42+00",8.4,9.4,,29.5,308,198,15,1031.89,28.9,0
"2018-01-16 12:12:42+00",9.5,10.5,,29.6,338,234,17,1031.91,29.1,0
"2018-01-16 12:17:42+00",8.9,9.9,,29.6,308,230,18,1031.93,29.2,0
"2018-01-16 12:22:42+00",8.9,8.9,,29.5,274,245,9,1031.87,29.2,0
"2018-01-16 12:27:42+00",7.4,8.4,,29.4,232,199,15,1031.78,29,0
"2018-01-16 12:32:42+00",8.9,9.9,,29.3,269,252,12,1031.83,28.9,0
"2018-01-16 12:37:42+00",9.5,10.5,,29.2,246,297,11,1031.86,28.8,0
"2018-01-16 12:42:42+00",10.0,12.0,,29.1,237,357,11,1031.96,28.8,0.1
"2018-01-16 12:47:42+00",9.5,10.5,,29.1,167,361,9,1032.2,28.7,0
"2018-01-16 12:52:42+00",10.3,12.3,,29.1,191,390,3,1032.16,28.8,0
"2018-01-16 12:57:42+00",9.2,10.2,,29.2,177,347,6,1032.33,28.9,0
"2018-01-16 13:02:42+00",8.2,10.2,,29.2,99,323,0,1032.73,29.1,0
"2018-01-16 13:07:42+00",8.8,10.8,,29.2,155,330,0,1032.59,29.2,2.3
"2018-01-16 13:12:42+00",10.0,11.0,,29.2,238,350,6,1032.36,29.3,20.9
"2018-01-16 13:17:42+00",10.7,11.7,,29.4,267,352,6,1032.48,29.7,51.6
"2018-01-16 13:22:42+00",9.5,10.5,,29.7,233,321,6,1032.44,30.4,61.3
"2018-01-16 13:27:42+00",7.0,9.0,,30.2,176,226,15,1032.47,31.1,88
"2018-01-16 13:32:42+00",8.7,10.7,,30.6,228,276,5,1032.4,32,86.5
"2018-01-16 13:37:42+00",10.0,11.0,,30.8,266,305,2,1032.29,32.3,100
"2018-01-16 13:42:42+00",9.0,11.0,,31,249,272,13,1032.23,32.6,113.7
"2018-01-16 13:47:42+00",9.3,10.3,,31.3,319,242,24,1032.07,32.8,97.7
"2018-01-16 13:52:42+00",10.3,11.3,,31.6,375,249,24,1032.05,32.9,101.6
"2018-01-16 13:57:42+00",9.8,11.8,,31.7,344,250,15,1031.92,33,93.4
"2018-01-16 14:02:42+00",11.3,12.3,,31.7,392,297,15,1032.02,32.9,117.6
"2018-01-16 14:07:42+00",9.6,10.6,,31.8,324,254,27,1032.11,33,120.3
"2018-01-16 14:12:42+00",10.1,11.1,,32,364,246,6,1032.17,33.3,129.5
"2018-01-16 14:17:42+00",10.3,11.3,,32.2,357,266,18,1032.23,33.2,65.5
"2018-01-16 14:22:42+00",10.3,11.3,,32.3,345,274,14,1032.29,33.2,80.4
"2018-01-16 14:27:42+00",9.9,10.9,,32.4,286,286,8,1032.33,33.6,140.8
"2018-01-16 14:32:42+00",11.0,12.0,,32.6,341,306,11,1032.18,34.1,86
"2018-01-16 14:37:42+00",9.7,10.7,,33,293,275,7,1032.21,34.3,202.5
"2018-01-16 14:42:42+00",9.3,10.3,,33.5,295,257,20,1032.18,35.1,173.3
"2018-01-16 14:47:42+00",10.5,11.5,,33.5,324,294,9,1032.09,35.5,210
"2018-01-16 14:52:42+00",9.2,10.2,,33.7,277,258,10,1032.07,35.9,216.1
"2018-01-16 14:57:42+00",10.1,11.1,,33.9,286,293,5,1032.06,35.9,119.2
"2018-01-16 15:02:42+00",10.1,11.1,,34.1,363,249,18,1032.05,35.6,159.2
"2018-01-16 15:07:42+00",9.3,10.3,,34.4,324,237,14,1032.04,35.4,113.2
"2018-01-16 15:12:42+00",9.3,10.3,,34.5,329,232,19,1031.95,36,246
"2018-01-16 15:17:42+00",10.4,11.4,,34.9,357,270,13,1031.91,36.7,242
"2018-01-16 15:22:42+00",9.6,10.6,,35.4,350,234,18,1031.77,37,211.5
"2018-01-16 15:27:42+00",9.5,10.5,,35.5,340,233,11,1031.73,36.9,114.8
"2018-01-16 15:32:42+00",9.7,10.7,,35.7,352,236,13,1031.78,37.5,299.6
"2018-01-16 15:37:42+00",8.5,10.5,,36.4,344,145,41,1031.56,38.4,204.5
"2018-01-16 15:42:42+00",11.0,12.0,,36.7,435,209,10,1031.4,39,222.8
"2018-01-16 15:47:42+00",10.5,12.5,,36.9,427,181,-4,1031.28,39.2,214.3
"2018-01-16 15:52:42+00",9.5,10.5,,37.2,396,156,21,1031.17,39.5,218.6
"2018-01-16 15:57:42+00",10.3,12.3,,37.4,444,125,40,1031.01,40.1,230.5
"2018-01-16 16:02:42+00",11.7,12.7,,37.4,505,130,17,1030.85,40.3,250.8
"2018-01-16 16:07:42+00",9.7,10.7,,37.5,423,130,30,1030.75,40.5,207.8
"2018-01-16 16:12:42+00",9.8,11.8,,37.6,426,112,27,1030.61,40.4,240.3
"2018-01-16 16:17:42+00",10.0,11.0,,37.6,428,127,-3,1030.57,40.3,174
"2018-01-16 16:22:42+00",9.8,10.8,,37.7,427,109,19,1030.46,40.3,233.8
"2018-01-16 16:27:42+00",9.3,10.3,,38,393,139,18,1030.41,40.5,227.1
"2018-01-16 16:32:42+00",8.4,9.4,,38.3,359,96,25,1030.4,41.2,183
"2018-01-16 16:37:42+00",9.0,9.0,,38.1,389,76,4,1030.36,41,142.1
"2018-01-16 16:42:42+00",8.7,9.7,,38.1,381,61,8,1030.27,41,166.8
"2018-01-16 16:47:42+00",9.2,10.2,,38.1,404,37,14,1030.13,40.9,238.3
"2018-01-16 16:52:42+00",9.8,9.8,,38.3,427,55,9,1030,41.1,285
"2018-01-16 16:57:42+00",9.3,10.3,,38.3,405,66,16,1029.86,41.6,251.4
"2018-01-16 17:02:42+00",9.1,10.1,,38.3,388,93,11,1029.79,41.7,250.5
"2018-01-16 17:07:42+00",7.0,8.0,,38.7,298,61,21,1029.74,42.1,256.4
"2018-01-16 17:12:42+00",7.4,8.4,,38.8,309,118,35,1029.87,42.3,245.2
"2018-01-16 17:17:42+00",6.9,7.9,,38.8,285,113,11,1029.67,42.7,247.1
"2018-01-16 17:22:42+00",7.2,8.2,,38.8,285,124,-3,1029.69,42.2,226.8
"2018-01-16 17:27:42+00",6.1,8.1,,38.9,261,50,12,1029.77,42.3,234.8
"2018-01-16 17:32:42+00",7.3,8.3,,39,304,103,19,1029.77,42.3,260.1
"2018-01-16 17:37:42+00",6.7,7.7,,39.1,262,100,21,1029.64,42.4,282.9
"2018-01-16 17:42:42+00",7.0,8.0,,39.1,304,4,23,1029.63,41.9,274.9
"2018-01-16 17:47:42+00",7.4,8.4,,39.1,319,-26,10,1029.51,42,246.2
"2018-01-16 17:52:42+00",8.9,9.9,,39,389,49,7,1029.4,41.7,155.4
"2018-01-16 17:57:42+00",7.7,8.7,,38.9,339,13,30,1029.38,41.5,190
"2018-01-16 18:02:42+00",7.6,8.6,,38.9,330,44,17,1029.48,41.7,266.8
"2018-01-16 18:07:42+00",8.8,9.8,,38.8,349,167,27,1029.38,41.6,128.4
"2018-01-16 18:12:42+00",8.6,9.6,,38.5,363,133,38,1029.4,41.3,131.1
"2018-01-16 18:17:42+00",9.5,10.5,,38.4,408,119,7,1029.37,41.1,130.2
"2018-01-16 18:22:42+00",9.7,10.7,,38.3,415,125,9,1029.35,40.8,206
"2018-01-16 18:27:42+00",8.7,9.7,,38.3,377,97,63,1029.29,41.1,176
"2018-01-16 18:32:42+00",9.8,9.8,,38.4,422,87,14,1029.2,41,135.3
"2018-01-16 18:37:42+00",9.0,10.0,,38.6,392,79,35,1029.11,41.2,135.4
"2018-01-16 18:42:42+00",8.5,9.5,,38.7,366,82,3,1029.01,41.3,225.9
"2018-01-16 18:47:42+00",8.2,9.2,,38.9,354,66,11,1028.93,41.5,241.9
"2018-01-16 18:52:42+00",8.9,9.9,,38.9,380,105,8,1028.8,41.5,235.2
"2018-01-16 18:57:42+00",8.4,9.4,,39,370,50,35,1028.7,41.7,195.8
"2018-01-16 19:02:42+00",8.4,9.4,,39.1,369,17,9,1028.61,41.6,218.8
"2018-01-16 19:07:42+00",8.8,9.8,,39.2,388,-4,9,1028.61,41.7,221.7
"2018-01-16 19:12:42+00",8.2,9.2,,39.3,358,35,-1,1028.62,41.8,223.5
"2018-01-16 19:17:42+00",8.6,9.6,,39.2,374,81,23,1028.64,42,208.7
"2018-01-16 19:22:42+00",7.4,8.4,,39.3,312,85,20,1028.59,42,200.2
"2018-01-16 19:27:42+00",6.8,7.8,,39.1,284,87,20,1028.59,41.8,201.1
"2018-01-16 19:32:42+00",5.8,6.8,,39.3,244,71,27,1028.59,41.8,169.1
"2018-01-16 19:37:42+00",6.6,7.6,,39.3,271,98,11,1028.49,41.9,167
"2018-01-16 19:42:42+00",6.9,8.9,,39.3,302,43,12,1028.48,41.8,160.2
"2018-01-16 19:47:42+00",7.6,8.6,,39.3,335,-17,14,1028.42,41.3,162.6
"2018-01-16 19:52:42+00",8.2,9.2,,39.4,357,-32,10,1028.29,40.9,164.5
"2018-01-16 19:57:42+00",7.1,8.1,,39.3,313,-4,25,1028.36,40.7,153.7
"2018-01-16 20:02:42+00",8.2,9.2,,39.2,354,63,13,1028.28,40.9,155.1
"2018-01-16 20:07:42+00",7.4,8.4,,39.1,320,57,20,1028.16,40.9,90.9
"2018-01-16 20:12:42+00",8.1,9.1,,38.9,348,54,26,1028.13,40.5,39
"2018-01-16 20:17:42+00",6.2,7.2,,38.7,255,93,11,1028.2,40,48.5
"2018-01-16 20:22:42+00",6.2,7.2,,38.6,229,134,14,1028.28,39.7,32.5
"2018-01-16 20:27:42+00",6.2,7.2,,38.7,240,114,10,1028.28,39.6,27.4
"2018-01-16 20:32:42+00",7.1,9.1,,38.8,297,99,6,1028.36,39.5,40.8
"2018-01-16 20:37:42+00",6.5,7.5,,38.8,256,114,11,1028.35,39.5,25.1
"2018-01-16 20:42:42+00",6.5,7.5,,38.7,248,126,10,1028.32,39.4,22
"2018-01-16 20:47:42+00",6.8,7.8,,38.8,273,107,10,1028.24,39.3,38.7
"2018-01-16 20:52:42+00",6.9,7.9,,38.8,298,83,13,1028.21,39.4,26.9
"2018-01-16 20:57:42+00",7.6,8.6,,38.8,328,105,19,1028.08,39.2,17.4
"2018-01-16 21:02:42+00",6.4,7.4,,38.8,237,135,21,1028.1,39,12.9
"2018-01-16 21:07:42+00",5.7,6.7,,38.3,133,185,7,1028.1,38.5,4.4
"2018-01-16 21:12:42+00",6.9,7.9,,38,165,225,9,1028.24,38.2,0.5
"2018-01-16 21:17:42+00",7.0,7.0,,37.7,173,206,3,1028.26,37.6,0
"2018-01-16 21:22:42+00",7.6,7.6,,37.2,195,228,7,1028.26,36.9,0
"2018-01-16 21:27:42+00",8.2,8.2,,36.8,214,234,5,1028.21,36.2,0
"2018-01-16 21:32:42+00",8.7,9.7,,36.3,172,322,9,1028.21,35.6,0
"2018-01-16 21:37:42+00",8.7,9.7,,35.7,202,308,7,1028.22,35,0
"2018-01-16 21:42:42+00",8.8,9.8,,35.6,232,255,7,1028.28,34.4,0
"2018-01-16 21:47:42+00",9.4,9.4,,35.8,260,261,5,1028.15,33.9,0
"2018-01-16 21:52:42+00",10.0,11.0,,35.8,330,269,19,1028.06,33.6,0
"2018-01-16 21:57:42+00",9.9,9.9,,35.9,351,249,23,1028.07,33.5,0
"2018-01-16 22:02:42+00",11.3,11.3,,36.5,415,264,32,1028.01,33.5,0
"2018-01-16 22:07:42+00",10.8,11.8,,36.3,393,259,26,1027.91,33.6,0
"2018-01-16 22:12:42+00",10.6,11.6,,36,373,275,24,1027.83,33.6,0
"2018-01-16 22:17:42+00",10.3,10.3,,35.8,361,262,22,1027.91,33.4,0
"2018-01-16 22:22:42+00",9.8,10.8,,36.3,367,222,23,1027.94,33.3,0
"2018-01-16 22:27:42+00",9.6,10.6,,37.4,375,184,26,1027.98,33.1,0
"2018-01-16 22:32:42+00",9.1,10.1,,37.8,363,154,5,1027.97,32.8,0
"2018-01-16 22:37:42+00",7.6,7.6,,37.4,310,118,15,1028,32.6,0
"2018-01-16 22:42:42+00",6.8,7.8,,36.6,276,117,2,1028.04,32.5,0
"2018-01-16 22:47:42+00",7.6,7.6,,36.4,303,141,8,1028.06,32.3,0
"2018-01-16 22:52:42+00",8.5,8.5,,37.3,338,139,3,1028.09,31.9,0
"2018-01-16 22:57:42+00",9.4,9.4,,37.9,359,194,24,1028.04,31.6,0
"2018-01-16 23:02:42+00",9.3,10.3,,38.1,334,225,21,1028.05,31.7,0
"2018-01-16 23:07:42+00",8.9,10.9,,36.6,154,333,-3,1028.11,31.9,0
"2018-01-16 23:12:42+00",9.2,10.2,,34.5,189,341,7,1028.23,31.8,0
"2018-01-16 23:17:42+00",9.2,10.2,,34,227,307,10,1028.23,31.6,0
"2018-01-16 23:22:42+00",8.8,9.8,,33.7,227,257,5,1028.31,31.5,0
"2018-01-16 23:27:42+00",9.1,9.1,,33.9,235,263,3,1028.31,31.5,0
"2018-01-16 23:32:42+00",9.2,10.2,,33.8,222,315,7,1028.29,31.5,0
"2018-01-16 23:37:42+00",11.3,11.3,,34,272,401,15,1028.27,31.6,0
"2018-01-16 23:42:42+00",11.9,12.9,,35,285,424,14,1028.27,31.9,0
"2018-01-16 23:47:42+00",11.0,12.0,,35.1,254,397,5,1028.36,32.4,0
"2018-01-16 23:52:42+00",11.3,11.3,,34.9,271,400,14,1028.29,32.5,0
"2018-01-16 23:57:42+00",13.0,13.0,,35.4,324,442,17,1028.21,32.6,0
